Vertical_Velocity
0 -1 -1 -2 -2 -1 -2 -2 -2 -2 -2 -1 -0 -0 -2 -1 -0 -1 2 -2 -2 -1 -1 1 -0 -1 -1 -2 -1 -0 -1 -1 -0 -2 -1 -3 -2 -1 -1 -0 -0 -0 1
0 -0 0 -1 -1 -1 -2 -2 -2 -2 -2 -2 -2 -1 -1 -1 0 0 -2 1 -2 -0 -1 -1 -0 0 -1 -1 1 -3 -1 -1 -1 -3 -1 -2 -3 0 0 -0 0 1 0
0 0 -0 -0 -1 -1 -2 -1 -2 -2 -2 -1 -2 -1 -1 -2 -1 -0 0 -2 1 2 -1 -0 -0 0 1 -0 -1 0 -1 -0 -1 -1 -2 -1 -1 -2 -0 -1 -1 -0 -1
-0 -0 -0 -1 -1 -1 -1 -1 -1 -3 -3 -1 -1 -2 -2 -1 -1 -1 -1 -1 1 -3 -1 -2 0 -1 0 -1 0 -0 2 -0 -1 -3 -0 -1 -1 -1 0 -1 -0 -1 -0
-1 -1 0 -0 -1 -1 -2 -1 -1 -1 -1 -2 -1 -1 -2 -2 -1 -1 -2 -1 -0 -1 -1 -0 -1 -1 -2 -1 -2 -2 -0 1 2 -1 -2 -2 -1 -1 -0 1 0 -0 0
-0 -1 -2 -0 -0 0 -0 -1 -2 -2 -1 -2 -1 -1 -3 -3 -1 -1 -1 -1 -0 -1 0 -0 -1 -2 -0 -3 -2 -0 -1 1 0 2 -0 -2 -3 -2 -2 0 -0 0 -1
-1 -1 -1 -0 1 -0 -1 -0 -2 -1 -0 -1 -1 -1 -3 2 -1 -2 -1 -1 -2 -1 -1 0 1 -0 -2 -2 -2 -2 -1 1 -0 -0 3 3 -1 -2 -3 -2 -1 -1 0
-1 -1 1 -1 -2 -1 -1 -1 -1 -2 -2 -2 -3 -3 -1 -5 3 0 -1 -2 -2 -2 -2 -0 0 -1 0 0 -0 -2 -1 -2 0 -0 -1 1 2 0 -2 -2 -1 -2 -2
1 -1 1 1 -1 -3 -0 -2 0 -3 -1 -4 -2 -2 -4 -3 -3 -0 1 1 -2 -2 -2 -2 -2 -1 -0 -2 -2 1 -1 -2 -1 -0 1 -1 -1 -0 1 1 -2 0 -0
1 -2 1 -1 -1 -1 -3 -1 -1 -1 -2 -2 -2 -3 0 -1 -5 -5 -1 -5 -0 0 -2 0 -2 -1 -2 -1 -1 -3 -2 1 -2 -1 -0 -1 -1 -1 -3 1 0 -2 -0
2 -0 -1 -0 3 -2 -2 -0 -2 -1 -3 -0 -4 0 -2 -4 -3 -1 -4 2 -1 -2 -0 -1 -2 -4 -1 -0 -1 -1 -1 -4 0 -1 -0 1 1 -1 -2 -3 -2 1 -1
1 3 -2 1 1 -0 -4 1 -2 0 -1 -0 -3 -1 -2 -2 0 -1 -3 -2 -5 2 -2 -1 2 1 -4 -6 -5 -2 -1 2 -1 -2 -3 -2 -1 2 0 -1 -1 -3 -1
1 3 -1 -1 -0 -3 -2 0 -2 -2 -0 -1 -2 -0 -1 -2 -1 -2 -3 -1 -8 -2 -3 0 -3 1 7 3 -1 -4 -3 -2 -0 2 1 -0 -2 -3 0 1 -0 -2 -2
2 0 -1 -2 -3 -1 -3 0 -1 -3 -1 -1 -3 -2 -2 -2 -2 -1 -3 -6 -2 -3 -1 -1 1 -1 -5 0 1 -2 -3 -2 -2 -2 -1 2 1 0 -2 -2 1 0 -1
-1 -0 1 -3 -2 -3 -2 -1 -0 0 -1 -2 -0 -1 -2 -2 -1 -1 -2 -2 -6 -6 -0 5 -8 -2 -3 -6 -0 5 3 -2 -5 -1 -3 -1 -1 -0 -0 -1 -3 -1 -0
-1 2 -1 -2 -4 -2 -4 -1 -1 -2 -1 -2 -2 -1 -1 -2 -1 -2 -3 -2 -1 -5 -11 -3 2 -3 -3 -4 -4 -6 1 4 3 -3 -3 -3 -0 -1 -1 0 -1 -2 -0
-0 0 1 -3 -5 -3 -2 -0 -1 -5 -3 -1 -2 -3 -1 -2 -2 -1 -2 -2 -2 -3 -12 8 -2 -2 -3 -2 -1 -6 -6 -1 1 4 -1 -2 -4 -2 -0 -1 1 1 -2
-0 1 -4 -5 -3 -3 -1 -2 -3 -1 -1 0 -1 -1 -1 -1 -0 -0 -1 0 -2 -1 -8 -6 2 -0 -1 -1 -2 -2 -2 -2 -2 2 2 1 0 -1 -0 1 0 0 0
-1 -1 -4 -4 -3 -1 -1 -1 -2 -0 -1 -2 -1 0 -0 -1 0 -0 -1 -0 -0 1 1 -7 2 1 -0 -0 -1 -0 -1 -1 -0 1 2 3 -1 -1 0 3 2 2 2
-3 -5 -2 1 -2 -0 0 -2 -0 -1 -2 -0 -1 -3 -1 -2 -2 -2 -1 -0 -1 -1 -1 -3 -3 -1 -1 6 -1 -5 -6 -1 -6 0 3 -0 4 -0 -0 2 4 3 1
-1 1 1 1 -0 -1 -2 -6 -7 -3 -1 -1 -2 -1 1 1 -0 -1 -7 1 -3 -2 -1 -3 -5 -5 -0 -3 -0 3 -7 -2 -0 -2 -5 2 -1 4 1 -1 0 5 4
0 -2 0 -1 -3 -4 -4 -2 0 0 -0 -2 -2 -1 -1 -2 -2 -2 -1 -1 1 -3 1 -1 -2 -3 -2 -4 -1 -5 -4 -0 -16 8 -4 -1 -4 -2 3 1 5 3 3
1 -1 -2 -4 -4 -1 -1 -1 -3 -5 -4 -1 -3 -2 -2 -3 -3 -4 -3 -4 -3 -1 -1 2 -1 3 -3 6 -3 0 2 -1 -2 2 -7 -13 5 -5 -2 -3 -1 1 2
-5 -5 -3 -1 -2 -0 -0 0 -0 -3 -3 -2 -2 -2 -4 -2 1 -2 -1 -4 -0 0 -2 9 6 2 2 -2 1 -3 -4 -4 -3 -2 10 -24 9 5 -0 -1 -5 1 -1
-2 -1 -1 -4 -4 -4 -5 -4 -2 -5 -2 -4 -3 2 1 -4 4 3 -5 -4 -3 -3 3 3 8 2 7 2 4 -4 0 -4 8 2 5 -9 15 -7 0 9 2 0 -4
-3 -4 -1 -3 -3 -5 -0 -5 -1 -3 -5 -2 2 2 7 -0 -5 1 -5 -5 -8 0 -3 -3 -3 -3 2 4 24 13 5 -5 -3 -11 4 5 6 1 -4 8 1 12 1
Height
3161 3160 3159 3158 3157 3156 3154 3152 3150 3147 3144 3142 3138 3136 3134 3132 3129 3126 3125 3122 3120 3117 3115 3112 3110 3107 3105 3103 3101 3100 3097 3095 3092 3090 3089 3087 3085 3084 3082 3081 3080 3079 3079
3159 3158 3157 3155 3154 3153 3152 3150 3148 3146 3143 3139 3136 3133 3132 3130 3127 3124 3122 3121 3118 3116 3114 3111 3109 3106 3104 3102 3099 3097 3095 3093 3091 3088 3087 3085 3084 3081 3080 3079 3078 3077 3076
3157 3156 3154 3153 3152 3150 3149 3147 3145 3143 3140 3137 3134 3131 3130 3128 3124 3122 3120 3118 3117 3115 3112 3110 3107 3105 3103 3101 3099 3096 3093 3090 3088 3086 3084 3082 3081 3080 3078 3077 3076 3076 3075
3155 3154 3152 3151 3149 3148 3146 3145 3142 3140 3138 3135 3132 3130 3128 3126 3123 3120 3118 3115 3113 3112 3111 3108 3106 3104 3101 3099 3097 3095 3092 3089 3086 3083 3081 3079 3078 3077 3076 3075 3074 3073 3073
3152 3151 3150 3149 3147 3145 3143 3141 3140 3137 3135 3132 3130 3128 3126 3123 3121 3118 3116 3114 3111 3109 3108 3106 3104 3102 3099 3097 3095 3092 3089 3088 3085 3082 3079 3077 3075 3074 3073 3072 3071 3070 3069
3149 3148 3147 3145 3144 3142 3140 3138 3136 3134 3132 3129 3127 3125 3123 3120 3117 3115 3113 3111 3109 3106 3104 3103 3101 3099 3097 3094 3092 3090 3088 3085 3083 3081 3078 3075 3074 3071 3070 3069 3068 3067 3067
3145 3144 3143 3142 3140 3139 3137 3135 3133 3131 3129 3126 3124 3122 3119 3117 3114 3112 3110 3108 3106 3104 3101 3100 3098 3097 3094 3092 3089 3087 3085 3083 3081 3079 3077 3074 3072 3070 3068 3066 3065 3065 3065
3142 3141 3139 3138 3136 3135 3133 3132 3129 3127 3125 3122 3119 3117 3115 3112 3112 3109 3106 3104 3102 3100 3098 3095 3094 3093 3090 3088 3086 3084 3082 3080 3078 3077 3075 3072 3070 3068 3066 3064 3063 3062 3062
3137 3136 3135 3134 3133 3131 3130 3128 3125 3123 3121 3118 3116 3113 3110 3109 3107 3106 3103 3101 3098 3096 3094 3092 3090 3088 3087 3084 3082 3080 3078 3076 3074 3072 3071 3069 3067 3065 3063 3062 3061 3059 3059
3132 3131 3131 3130 3129 3128 3126 3124 3122 3119 3117 3115 3112 3110 3107 3104 3101 3101 3101 3096 3093 3092 3089 3087 3085 3083 3081 3080 3078 3075 3074 3071 3069 3068 3067 3065 3064 3062 3059 3058 3057 3056 3055
3127 3127 3126 3126 3125 3123 3121 3119 3117 3114 3112 3110 3108 3105 3103 3101 3096 3093 3092 3094 3090 3086 3084 3082 3080 3078 3075 3073 3072 3071 3068 3067 3065 3063 3061 3061 3059 3058 3056 3055 3053 3051 3050
3123 3123 3122 3121 3120 3118 3116 3114 3112 3109 3107 3105 3103 3100 3098 3096 3093 3088 3084 3084 3082 3084 3078 3076 3073 3071 3069 3068 3066 3064 3063 3060 3059 3058 3057 3055 3053 3052 3051 3050 3049 3047 3046
3119 3118 3117 3116 3114 3113 3111 3109 3106 3104 3102 3099 3097 3095 3092 3090 3087 3084 3079 3075 3072 3076 3074 3073 3067 3064 3062 3059 3057 3056 3055 3053 3052 3051 3050 3048 3047 3046 3044 3044 3043 3042 3041
3114 3112 3111 3110 3108 3107 3105 3103 3100 3098 3095 3092 3090 3088 3085 3082 3078 3075 3072 3067 3061 3059 3063 3064 3061 3058 3054 3052 3050 3047 3047 3046 3044 3042 3041 3039 3039 3038 3037 3036 3035 3036 3035
3109 3107 3106 3104 3102 3101 3099 3096 3093 3090 3088 3085 3082 3080 3077 3074 3071 3068 3065 3061 3056 3047 3044 3052 3052 3052 3047 3044 3040 3037 3035 3035 3036 3036 3034 3032 3030 3030 3030 3029 3028 3026 3027
3103 3101 3099 3097 3096 3094 3092 3088 3085 3082 3079 3076 3072 3070 3068 3065 3062 3059 3055 3052 3049 3043 3034 3034 3036 3040 3037 3036 3034 3031 3026 3025 3023 3024 3025 3023 3022 3021 3020 3021 3020 3019 3018
3096 3094 3092 3090 3089 3086 3082 3079 3075 3072 3069 3066 3064 3060 3057 3055 3050 3048 3045 3041 3036 3034 3027 3023 3022 3019 3026 3023 3021 3020 3017 3014 3012 3012 3012 3013 3012 3011 3011 3010 3010 3011 3010
3089 3087 3085 3082 3079 3076 3073 3069 3065 3062 3058 3055 3053 3050 3046 3043 3039 3035 3032 3029 3024 3021 3017 3011 3009 3007 3004 3008 3006 3003 3004 3002 3000 2998 2997 2997 2999 3000 3000 3000 2999 3000 3002
3081 3078 3075 3072 3069 3066 3063 3059 3054 3050 3048 3045 3041 3037 3035 3031 3027 3024 3020 3015 3012 3008 3004 3000 2995 2993 2991 2988 2990 2988 2987 2987 2986 2984 2982 2982 2984 2985 2987 2988 2989 2989 2990
3072 3069 3065 3062 3059 3055 3051 3047 3044 3041 3036 3031 3028 3024 3021 3017 3013 3009 3006 3002 2999 2994 2990 2987 2983 2981 2978 2977 2975 2973 2972 2974 2973 2972 2969 2967 2969 2969 2971 2973 2974 2977 2979
3061 3059 3056 3051 3047 3044 3041 3037 3032 3026 3021 3017 3014 3011 3007 3003 3000 2996 2992 2989 2985 2981 2978 2974 2970 2968 2965 2964 2962 2961 2958 2957 2959 2959 2958 2958 2958 2957 2957 2958 2960 2962 2966
3051 3048 3045 3041 3039 3036 3031 3026 3019 3012 3007 3003 2999 2996 2993 2989 2986 2983 2979 2975 2972 2968 2966 2962 2959 2955 2953 2951 2949 2948 2947 2945 2944 2947 2945 2946 2945 2946 2948 2948 2948 2950 2953
3042 3040 3037 3033 3027 3022 3017 3013 3007 3000 2996 2992 2987 2983 2979 2976 2972 2969 2966 2962 2959 2957 2955 2952 2948 2946 2943 2940 2938 2936 2935 2934 2933 2934 2933 2934 2935 2934 2936 2937 2939 2939 2941
3033 3029 3024 3020 3015 3011 3006 3000 2996 2989 2984 2981 2977 2973 2968 2965 2961 2958 2952 2949 2948 2946 2945 2942 2939 2936 2934 2932 2929 2926 2924 2922 2922 2922 2922 2920 2922 2922 2923 2926 2929 2931 2932
3021 3017 3013 3008 3002 2997 2993 2988 2984 2978 2973 2971 2967 2963 2958 2955 2952 2948 2943 2939 2937 2935 2935 2933 2929 2927 2925 2923 2920 2916 2915 2913 2913 2912 2912 2910 2912 2912 2913 2912 2915 2921 2923
3009 3004 3000 2997 2992 2987 2983 2978 2973 2966 2963 2960 2959 2955 2951 2946 2942 2938 2934 2931 2927 2927 2925 2923 2921 2919 2916 2914 2913 2909 2907 2905 2904 2902 2904 2903 2903 2903 2904 2904 2905 2907 2912